Hourly Data Report for January 02, 2018

All times are specified in Local Standard Time (LST). Add 1 hour to adjust for Daylight Saving Time where and when it is observed.

GANDER INTL A
NEWFOUNDLAND

48°56'13.000" N
54°34'05.000" W
151.20 m
8401703
71803
YQX

Download Data

Hourly Data (January 2018)
Hourly Data Report for January 2, 2018
Temp Definition
°C
Dew Point Temp Definition
°C
Rel Hum Definition
%
Wind Dir Definition
10's deg

Wind Spd Definition
km/h
Visibility Definition
km
Stn Press Definition
kPa
Hmdx Definition


Wind Chill Definition


Weather Definition


TIME
00:30 Legend Double Dagger -5.0 -7.0 86 36 2 24.1 98.60   -6 LegendNANA
01:30 Legend Double Dagger -5.6 -7.8 84 36 2 24.1 98.63   -7 LegendNANA
02:30 Legend Double Dagger -6.7 -7.8 92 13 5 24.1 98.70   -9 Mainly Clear
03:30 Legend Double Dagger -6.6 -7.4 94 36 3 24.1 98.74   -8 LegendNANA
04:30 Legend Double Dagger -6.5 -7.4 93 16 3 24.1 98.78   -8 LegendNANA
05:30 Legend Double Dagger -6.0 -6.8 94 13 3 24.1 98.80   -7 Snow Showers
06:30 Legend Double Dagger -7.3 -7.9 95 14 8 24.1 98.84   -11 LegendNANA
07:30 Legend Double Dagger -7.4 -8.1 95 15 5 12.9 98.87   -10 LegendNANA
08:30 Legend Double Dagger -6.2 -6.7 97 15 10 8.1 98.91   -11 Freezing Drizzle,Snow,Fog
09:30 Legend Double Dagger -5.5 -6.0 97 19 16 9.7 98.94   -11 Fog
10:30 Legend Double Dagger -4.7 -5.4 95 17 23 24.1 98.94   -12 LegendNANA
11:30 Legend Double Dagger -3.1 -6.0 80 20 19 24.1 98.88   -9 Mostly Cloudy
12:30 Legend Double Dagger -2.8 -6.8 74 22 22 24.1 98.83   -9 LegendNANA
13:30 Legend Double Dagger -3.0 -6.4 77 19 22 32.2 98.79   -9 LegendNANA
14:30 Legend Double Dagger -3.2 -6.7 77 20 18 32.2 98.76   -9 Mostly Cloudy
15:30 Legend Double Dagger -3.1 -7.2 73 21 16 32.2 98.76   -8 LegendNANA
16:30 Legend Double Dagger -3.5 -6.8 78 20 9 32.2 98.74   -7 LegendNANA
17:30 Legend Double Dagger -4.3 -7.4 79 20 10 32.2 98.73   -8 Mostly Cloudy
18:30 Legend Double Dagger -4.8 -7.3 82 20 14 32.2 98.71   -10 LegendNANA
19:30 Legend Double Dagger -4.9 -6.8 87 21 8 32.2 98.73   -8 LegendNANA
20:30 Legend Double Dagger -5.1 -7.1 86 24 12 24.1 98.72   -10 Mostly Cloudy
21:30 Legend Double Dagger -5.6 -7.0 90 24 9 24.1 98.69   -10 Snow Showers
22:30 Legend Double Dagger -7.0 -7.8 94 11 7 24.1 98.69   -11 Snow Showers
23:30 Legend Double Dagger -6.5 -7.5 93 18 10 24.1 98.68   -11 Snow Showers

Notes on Data Quality.

Legend

  • E = Estimated
  • M = Missing
  • NA = Not Available
  • ‡ = Partner data that is not subject to review by the National Climate Archives
Date modified: